TimePDT,TemperatureF,Dew PointF,Humidity,Sea Level PressureIn,VisibilityMPH,Wind Direction,Wind SpeedMPH,Gust SpeedMPH,PrecipitationIn,Events,Conditions,WindDirDegrees,DateUTC
12:53 AM,66.0,55.0,68,29.86,10.0,Calm,Calm,-,N/A,,Clear,0,2013-09-01 07:53:00
1:53 AM,64.9,55.0,70,29.86,10.0,Calm,Calm,-,N/A,,Clear,0,2013-09-01 08:53:00
2:53 AM,64.0,55.0,73,29.86,10.0,Calm,Calm,-,N/A,,Clear,0,2013-09-01 09:53:00
3:53 AM,62.1,55.9,80,29.87,10.0,SE,5.8,-,N/A,,Clear,130,2013-09-01 10:53:00
4:53 AM,62.1,55.0,78,29.87,10.0,SSE,3.5,-,N/A,,Clear,150,2013-09-01 11:53:00
5:53 AM,61.0,55.0,81,29.88,10.0,SE,3.5,-,N/A,,Clear,130,2013-09-01 12:53:00
6:53 AM,62.1,55.0,78,29.88,10.0,Calm,Calm,-,N/A,,Clear,0,2013-09-01 13:53:00
7:46 AM,62.6,57.2,82,29.90,10.0,SSE,5.8,-,N/A,,Scattered Clouds,160,2013-09-01 14:46:00
7:53 AM,62.1,55.9,80,29.90,10.0,SSW,4.6,-,N/A,,Mostly Cloudy,200,2013-09-01 14:53:00
8:00 AM,62.6,55.4,77,29.90,10.0,South,3.5,-,N/A,,Mostly Cloudy,180,2013-09-01 15:00:00
8:53 AM,63.0,57.0,81,29.90,10.0,SE,4.6,-,N/A,,Scattered Clouds,140,2013-09-01 15:53:00
9:53 AM,68.0,57.0,68,29.89,10.0,WSW,4.6,-,N/A,,Scattered Clouds,240,2013-09-01 16:53:00
10:53 AM,71.1,55.9,59,29.87,10.0,Calm,Calm,-,N/A,,Partly Cloudy,0,2013-09-01 17:53:00
11:53 AM,73.0,55.0,53,29.86,10.0,Variable,4.6,-,N/A,,Clear,0,2013-09-01 18:53:00
12:53 PM,75.9,57.0,52,29.85,10.0,SW,5.8,-,N/A,,Clear,230,2013-09-01 19:53:00
1:53 PM,79.0,55.9,45,29.84,10.0,SW,5.8,-,N/A,,Clear,220,2013-09-01 20:53:00
2:53 PM,81.0,55.0,41,29.82,10.0,WSW,4.6,-,N/A,,Scattered Clouds,250,2013-09-01 21:53:00
3:53 PM,81.0,55.9,42,29.81,10.0,ESE,5.8,-,N/A,,Partly Cloudy,120,2013-09-01 22:53:00
4:53 PM,82.0,55.9,41,29.81,10.0,South,5.8,-,N/A,,Partly Cloudy,180,2013-09-01 23:53:00
5:53 PM,82.0,55.9,41,29.80,10.0,SSW,5.8,-,N/A,,Clear,200,2013-09-02 00:53:00
6:53 PM,80.1,55.0,42,29.80,10.0,SSW,6.9,-,N/A,,Clear,210,2013-09-02 01:53:00
7:53 PM,77.0,54.0,45,29.82,10.0,SW,5.8,-,N/A,,Clear,230,2013-09-02 02:53:00
8:53 PM,75.9,52.0,43,29.84,10.0,WSW,5.8,-,N/A,,Overcast,250,2013-09-02 03:53:00
9:53 PM,73.0,54.0,51,29.85,10.0,Calm,Calm,-,N/A,,Overcast,0,2013-09-02 04:53:00
10:53 PM,71.1,54.0,55,29.86,10.0,Calm,Calm,-,N/A,,Overcast,0,2013-09-02 05:53:00
11:53 PM,70.0,54.0,57,29.87,10.0,Calm,Calm,-,N/A,,Clear,0,2013-09-02 06:53:00